When you browse on this site, cookies collect data to enhance your experience and personalize the content and advertising you see.
Visit our Privacy Policy to learn more. By continuing to use the site, you agree to this use of cookies and data.
  • In Lithuania
  • List of Countries
  • For 7 days
  • Water Temperature
  • Weather Map
  • Weather Widgets
  • user-avatar
    Login

    Hourly Weather Nitra

    Today, 10 April, Friday

    Time Temperature Precipitation Wind Pressure Humidity
    00:00 +10°C° 0 mm 2 mps 740 mmHg 62%
    01:00 +10°C° 0 mm 3 mps 740 mmHg 65%
    02:00 +9°C° 0 mm 3 mps 740 mmHg 69%
    03:00 +9°C° 0 mm 3 mps 740 mmHg 72%
    04:00 +9°C° 0 mm 3 mps 740 mmHg 76%
    05:00 +9°C° 0 mm 3 mps 740 mmHg 75%
    06:00 +10°C° 0 mm 3 mps 741 mmHg 73%
    07:00 +11°C° 0 mm 4 mps 741 mmHg 71%
    08:00 +12°C° 0 mm 4 mps 742 mmHg 63%
    09:00 +13°C° 0 mm 5 mps 742 mmHg 55%
    10:00 +14°C° 0 mm 5 mps 742 mmHg 47%
    11:00 +15°C° 0 mm 5 mps 742 mmHg 46%
    12:00 +15°C° 0 mm 5 mps 742 mmHg 44%
    13:00 +16°C° 0 mm 5 mps 741 mmHg 44%
    14:00 +16°C° 0 mm 5 mps 741 mmHg 44%
    15:00 +16°C° 0 mm 5 mps 740 mmHg 44%
    16:00 +17°C° 0 mm 4 mps 740 mmHg 44%
    17:00 +14°C° 0 mm 4 mps 740 mmHg 47%
    18:00 +12°C° 0 mm 3 mps 740 mmHg 51%
    19:00 +10°C° 0 mm 2 mps 740 mmHg 54%
    20:00 +10°C° 0 mm 2 mps 741 mmHg 53%
    21:00 +9°C° 0 mm 2 mps 741 mmHg 52%
    22:00 +9°C° 0 mm 2 mps 741 mmHg 50%
    23:00 +8°C° 0 mm 2 mps 741 mmHg 52%

    Tomorrow, 11 April, Saturday

    Time Temperature Precipitation Wind Pressure Humidity
    00:00 +9°C° 0 mm 1 mps 741 mmHg 54%
    01:00 +8°C° 0 mm 1 mps 741 mmHg 56%
    02:00 +8°C° 0 mm 1 mps 741 mmHg 58%
    03:00 +7°C° 0 mm 1 mps 741 mmHg 60%
    04:00 +7°C° 0 mm 1 mps 741 mmHg 62%
    05:00 +7°C° 0 mm 1 mps 741 mmHg 61%
    06:00 +8°C° 0 mm 1 mps 742 mmHg 60%
    07:00 +9°C° 0 mm 1 mps 742 mmHg 59%
    08:00 +11°C° 0 mm 1 mps 742 mmHg 54%
    09:00 +13°C° 0 mm 1 mps 742 mmHg 48%
    10:00 +15°C° 0 mm 2 mps 743 mmHg 42%
    11:00 +15°C° 0 mm 2 mps 743 mmHg 39%
    12:00 +16°C° 0 mm 2 mps 742 mmHg 36%
    13:00 +17°C° 0 mm 3 mps 742 mmHg 34%
    14:00 +17°C° 0 mm 2 mps 742 mmHg 34%
    15:00 +17°C° 0 mm 2 mps 742 mmHg 34%
    16:00 +17°C° 0 mm 2 mps 741 mmHg 34%
    17:00 +15°C° 0 mm 1 mps 741 mmHg 39%
    18:00 +13°C° 0 mm 1 mps 741 mmHg 45%
    19:00 +11°C° 0 mm 1 mps 741 mmHg 51%
    20:00 +11°C° 0 mm 1 mps 741 mmHg 53%
    21:00 +10°C° 0 mm 1 mps 742 mmHg 56%
    22:00 +9°C° 0 mm 1 mps 742 mmHg 58%
    23:00 +9°C° 0 mm 1 mps 742 mmHg 60%

    Day after tomorrow, 12 April, Sunday

    Time Temperature Precipitation Wind Pressure Humidity
    00:00 +8°C° 0 mm 1 mps 742 mmHg 61%
    01:00 +8°C° 0 mm 1 mps 742 mmHg 63%
    02:00 +7°C° 0 mm 2 mps 741 mmHg 66%
    03:00 +6°C° 0 mm 2 mps 741 mmHg 68%
    04:00 +6°C° 0 mm 2 mps 741 mmHg 71%
    05:00 +7°C° 0 mm 2 mps 741 mmHg 69%
    06:00 +8°C° 0 mm 2 mps 741 mmHg 67%
    07:00 +9°C° 0 mm 2 mps 741 mmHg 66%
    08:00 +10°C° 0 mm 3 mps 741 mmHg 63%
    09:00 +11°C° 0 mm 3 mps 740 mmHg 60%
    10:00 +13°C° 0 mm 3 mps 740 mmHg 58%
    11:00 +14°C° 0 mm 4 mps 740 mmHg 57%
    12:00 +15°C° 0 mm 4 mps 739 mmHg 56%
    13:00 +17°C° 0 mm 4 mps 739 mmHg 55%
    14:00 +17°C° 0 mm 4 mps 738 mmHg 55%
    15:00 +17°C° 0 mm 4 mps 738 mmHg 55%
    16:00 +18°C° 0 mm 4 mps 737 mmHg 55%
    17:00 +15°C° 0 mm 4 mps 737 mmHg 60%
    18:00 +13°C° 0 mm 4 mps 736 mmHg 66%
    19:00 +12°C° 0 mm 3 mps 736 mmHg 71%
    20:00 +11°C° 0 mm 3 mps 736 mmHg 71%
    21:00 +11°C° 0 mm 3 mps 735 mmHg 71%
    22:00 +10°C° 0 mm 3 mps 735 mmHg 71%
    23:00 +10°C° 0 mm 3 mps 735 mmHg 69%

    13 April, Monday

    Time Temperature Precipitation Wind Pressure Humidity
    00:00 +10°C° 0 mm 3 mps 734 mmHg 68%
    01:00 +10°C° 0 mm 3 mps 734 mmHg 67%
    02:00 +9°C° 0 mm 3 mps 734 mmHg 68%
    03:00 +9°C° 0 mm 3 mps 733 mmHg 68%
    04:00 +8°C° 0 mm 3 mps 733 mmHg 69%
    05:00 +9°C° 0 mm 3 mps 733 mmHg 69%
    06:00 +9°C° 0 mm 3 mps 733 mmHg 69%
    07:00 +10°C° 0 mm 3 mps 733 mmHg 69%
    08:00 +11°C° 0 mm 3 mps 733 mmHg 65%
    09:00 +13°C° 0 mm 3 mps 733 mmHg 61%
    10:00 +14°C° 0 mm 3 mps 732 mmHg 57%
    11:00 +16°C° 0 mm 3 mps 732 mmHg 55%
    12:00 +17°C° 0 mm 2 mps 732 mmHg 53%
    13:00 +18°C° 0 mm 2 mps 732 mmHg 51%
    14:00 +18°C° 0 mm 2 mps 731 mmHg 52%
    15:00 +18°C° 0 mm 2 mps 731 mmHg 54%
    16:00 +18°C° 0 mm 2 mps 730 mmHg 55%
    17:00 +17°C° 0.2 mm 3 mps 730 mmHg 62%
    18:00 +14°C° 0.2 mm 3 mps 730 mmHg 70%
    19:00 +12°C° 0.2 mm 4 mps 730 mmHg 77%
    20:00 +12°C° 0.6 mm 4 mps 730 mmHg 79%
    21:00 +12°C° 0.6 mm 3 mps 730 mmHg 81%
    22:00 +12°C° 0.6 mm 3 mps 731 mmHg 83%
    23:00 +11°C° 0.1 mm 4 mps 731 mmHg 84%

    14 April, Tuesday

    Time Temperature Precipitation Wind Pressure Humidity
    00:00 +9°C° 0.1 mm 5 mps 731 mmHg 85%
    01:00 +9°C° 0.1 mm 6 mps 731 mmHg 87%
    02:00 +7°C° 0 mm 6 mps 732 mmHg 84%
    03:00 +4°C° 0 mm 6 mps 732 mmHg 82%
    04:00 +2°C° 0 mm 7 mps 732 mmHg 79%
    05:00 +2°C° 0 mm 7 mps 733 mmHg 74%
    06:00 0°C° 0 mm 7 mps 734 mmHg 69%
    07:00 0°C° 0 mm 7 mps 735 mmHg 63%
    08:00 +2°C° 0 mm 7 mps 735 mmHg 57%
    09:00 +2°C° 0 mm 8 mps 736 mmHg 50%
    10:00 +4°C° 0 mm 8 mps 737 mmHg 43%
    11:00 +5°C° 0 mm 7 mps 737 mmHg 41%
    12:00 +5°C° 0 mm 7 mps 737 mmHg 39%
    13:00 +6°C° 0 mm 7 mps 737 mmHg 37%
    14:00 +7°C° 0 mm 6 mps 737 mmHg 38%
    15:00 +7°C° 0 mm 6 mps 737 mmHg 39%
    16:00 +7°C° 0 mm 5 mps 737 mmHg 39%
    17:00 +6°C° 0 mm 4 mps 737 mmHg 44%
    18:00 +4°C° 0 mm 3 mps 738 mmHg 48%
    19:00 +4°C° 0 mm 2 mps 738 mmHg 53%
    20:00 +3°C° 0 mm 2 mps 739 mmHg 54%
    21:00 +3°C° 0 mm 2 mps 739 mmHg 55%
    22:00 +3°C° 0 mm 1 mps 739 mmHg 56%
    23:00 +3°C° 0 mm 1 mps 740 mmHg 58%

    15 April, Wednesday

    Time Temperature Precipitation Wind Pressure Humidity
    00:00 +2°C° 0 mm 1 mps 740 mmHg 59%
    01:00 +2°C° 0 mm 1 mps 740 mmHg 60%
    02:00 +1°C° 0 mm 1 mps 740 mmHg 62%
    03:00 +1°C° 0 mm 1 mps 740 mmHg 65%
    04:00 +1°C° 0 mm 1 mps 740 mmHg 67%
    05:00 +2°C° 0 mm 1 mps 740 mmHg 64%
    06:00 +3°C° 0 mm 1 mps 740 mmHg 61%
    07:00 +4°C° 0 mm 1 mps 741 mmHg 58%
    08:00 +5°C° 0 mm 2 mps 741 mmHg 52%
    09:00 +6°C° 0 mm 2 mps 741 mmHg 47%
    10:00 +7°C° 0 mm 2 mps 741 mmHg 42%
    11:00 +8°C° 0 mm 2 mps 740 mmHg 40%
    12:00 +9°C° 0 mm 2 mps 740 mmHg 39%
    13:00 +10°C° 0 mm 2 mps 739 mmHg 37%
    14:00 +10°C° 0 mm 2 mps 739 mmHg 38%
    15:00 +12°C° 0 mm 2 mps 738 mmHg 39%
    16:00 +12°C° 0 mm 2 mps 738 mmHg 40%
    17:00 +9°C° 0 mm 2 mps 738 mmHg 45%
    18:00 +7°C° 0 mm 2 mps 737 mmHg 51%
    19:00 +7°C° 0 mm 1 mps 737 mmHg 57%
    20:00 +6°C° 0 mm 1 mps 737 mmHg 57%
    21:00 +6°C° 0 mm 1 mps 737 mmHg 58%
    22:00 +5°C° 0 mm 1 mps 737 mmHg 59%
    23:00 +5°C° 0 mm 1 mps 736 mmHg 60%
    Show more